,,,PA_Meas_PMT16A,,PR_Meas_QMR101_102,,RH_Meas_QMH101,,SR_Meas_QMS101,,TA_Meas_QMH101,,GenWind,,GenWind,
date,time,status,PA,status,PR,status,RH,status,SR,status,TA,status,DirAvg,status,SpdAvg,
2009-08-02, 00:00:04,VALID,1003.25,VALID,0,VALID,91.4855,VALID,0,VALID,25.4149,VALID,327,VALID,0,
2009-08-02, 00:01:04,VALID,1003.22,VALID,0,VALID,91.4474,VALID,0,VALID,25.4169,VALID,327,VALID,0,
2009-08-02, 00:02:04,VALID,1003.22,VALID,0,VALID,91.4932,VALID,0,VALID,25.4169,VALID,327,VALID,0,
2009-08-02, 00:03:04,VALID,1003.2,VALID,0,VALID,91.5542,VALID,0,VALID,25.4169,VALID,327,VALID,0,
2009-08-02, 00:04:04,VALID,1003.16,VALID,0,VALID,91.5237,VALID,0,VALID,25.3974,VALID,327,VALID,0,
2009-08-02, 00:05:04,VALID,1003.16,VALID,0,VALID,91.5618,VALID,0,VALID,25.3974,VALID,327,VALID,0,
2009-08-02, 00:06:04,VALID,1003.12,VALID,0,VALID,91.5618,VALID,0,VALID,25.376,VALID,327,VALID,0,
2009-08-02, 00:07:04,VALID,1003.07,VALID,0,VALID,91.4398,VALID,0,VALID,25.3974,VALID,327,VALID,0,
2009-08-02, 00:08:04,VALID,1003.09,VALID,0,VALID,91.5008,VALID,0,VALID,25.376,VALID,327,VALID,0,
2009-08-02, 00:09:04,VALID,1003.09,VALID,0,VALID,91.5847,VALID,0,VALID,25.3955,VALID,327,VALID,0,
2009-08-02, 00:10:04,VALID,1003.06,VALID,0,VALID,91.6381,VALID,0,VALID,25.3974,VALID,327,VALID,0,
2009-08-02, 00:11:04,VALID,1003.05,VALID,0,VALID,91.5618,VALID,0,VALID,25.376,VALID,327,VALID,0,
2009-08-02, 00:12:04,VALID,1003.06,VALID,0,VALID,91.5084,VALID,0,VALID,25.3974,VALID,327,VALID,0.159766,
2009-08-02, 00:13:04,VALID,1003.05,VALID,0,VALID,91.6,VALID,0,VALID,25.4169,VALID,327,VALID,0,
2009-08-02, 00:14:04,VALID,1003.05,VALID,0,VALID,91.6534,VALID,0,VALID,25.4169,VALID,327,VALID,0,
2009-08-02, 00:15:04,VALID,1003.02,VALID,0,VALID,91.6915,VALID,0,VALID,25.4169,VALID,327,VALID,0.283594,
2009-08-02, 00:16:04,VALID,1003.01,VALID,0,VALID,91.5923,VALID,0,VALID,25.4149,VALID,327,VALID,0.314844,
2009-08-02, 00:17:04,VALID,1002.97,VALID,0,VALID,91.5466,VALID,0,VALID,25.4149,VALID,327,VALID,0.261328,
2009-08-02, 00:18:04,VALID,1003,VALID,0,VALID,91.6381,VALID,0,VALID,25.3955,VALID,327,VALID,0.256641,
2009-08-02, 00:19:04,VALID,1003,VALID,0,VALID,91.5695,VALID,0,VALID,25.4149,VALID,327,VALID,0.180078,
2009-08-02, 00:20:04,VALID,1003,VALID,0,VALID,91.5847,VALID,0,VALID,25.4363,VALID,327,VALID,0.260547,
2009-08-02, 00:21:04,VALID,1003.02,VALID,0,VALID,91.5695,VALID,0,VALID,25.4149,VALID,327,VALID,0.228906,
2009-08-02, 00:22:04,VALID,1003.01,VALID,0,VALID,91.4703,VALID,0,VALID,25.4169,VALID,334,VALID,0.0535156,
2009-08-02, 00:23:04,VALID,1003.01,VALID,0,VALID,91.394,VALID,0,VALID,25.3955,VALID,334,VALID,0.190625,
2009-08-02, 00:24:04,VALID,1003.01,VALID,0,VALID,91.4016,VALID,0,VALID,25.3955,VALID,334,VALID,0.05625,
2009-08-02, 00:25:04,VALID,1003.03,VALID,0,VALID,91.3635,VALID,0,VALID,25.3779,VALID,334,VALID,0.205859,
2009-08-02, 00:26:04,VALID,1003.01,VALID,0,VALID,91.394,VALID,0,VALID,25.376,VALID,334,VALID,0.200781,
2009-08-02, 00:27:04,VALID,1003.01,VALID,0,VALID,91.3787,VALID,0,VALID,25.3565,VALID,334,VALID,0,
2009-08-02, 00:28:04,VALID,1002.98,VALID,0,VALID,91.5542,VALID,0,VALID,25.3779,VALID,334,VALID,0,
2009-08-02, 00:29:04,VALID,1002.98,VALID,0,VALID,91.5389,VALID,0,VALID,25.3565,VALID,334,VALID,0,
2009-08-02, 00:30:04,VALID,1002.96,VALID,0,VALID,91.6152,VALID,0,VALID,25.4169,VALID,334,VALID,0.00351562,
2009-08-02, 00:31:04,VALID,1002.94,VALID,0,VALID,91.6839,VALID,0,VALID,25.3955,VALID,334,VALID,0,
2009-08-02, 00:32:04,VALID,1002.88,VALID,0,VALID,91.6686,VALID,0,VALID,25.3955,VALID,334,VALID,0,
2009-08-02, 00:33:04,VALID,1002.86,VALID,0,VALID,91.6076,VALID,0,VALID,25.3974,VALID,334,VALID,0,
2009-08-02, 00:34:04,VALID,1002.86,VALID,0,VALID,91.5237,VALID,0,VALID,25.3565,VALID,334,VALID,0,
2009-08-02, 00:35:04,VALID,1002.82,VALID,0,VALID,91.6839,VALID,0,VALID,25.376,VALID,334,VALID,0,
2009-08-02, 00:36:04,VALID,1002.81,VALID,0,VALID,91.6229,VALID,0,VALID,25.376,VALID,334,VALID,0.369922,
2009-08-02, 00:37:04,VALID,1002.79,VALID,0,VALID,91.5313,VALID,0.100563,VALID,25.3565,VALID,340,VALID,0.448047,
2009-08-02, 00:38:04,VALID,1002.78,VALID,0,VALID,91.5008,VALID,0,VALID,25.337,VALID,340,VALID,0.0902344,
2009-08-02, 00:39:04,VALID,1002.82,VALID,0,VALID,91.5542,VALID,0,VALID,25.3176,VALID,340,VALID,0.0324219,
2009-08-02, 00:40:04,VALID,1002.8,VALID,0,VALID,91.6457,VALID,0,VALID,25.339,VALID,340,VALID,0.102344,
2009-08-02, 00:41:04,VALID,1002.8,VALID,0,VALID,91.6229,VALID,0,VALID,25.2981,VALID,340,VALID,0.238672,
2009-08-02, 00:42:04,VALID,1002.8,VALID,0,VALID,91.661,VALID,0,VALID,25.3,VALID,340,VALID,0.316406,
2009-08-02, 00:43:04,VALID,1002.79,VALID,0,VALID,91.7144,VALID,0,VALID,25.3,VALID,340,VALID,0.262891,
2009-08-02, 00:44:04,VALID,1002.83,VALID,0,VALID,91.7754,VALID,0,VALID,25.2786,VALID,340,VALID,0.0238281,
2009-08-02, 00:45:04,VALID,1002.74,VALID,0,VALID,91.8517,VALID,0,VALID,25.3,VALID,340,VALID,0,
2009-08-02, 00:46:04,VALID,1002.78,VALID,0,VALID,91.9204,VALID,0,VALID,25.2786,VALID,340,VALID,0.162109,
2009-08-02, 00:47:04,VALID,1002.73,VALID,0,VALID,91.9204,VALID,0,VALID,25.3,VALID,340,VALID,0.364062,
2009-08-02, 00:48:04,VALID,1002.7,VALID,0,VALID,91.8899,VALID,0,VALID,25.2786,VALID,340,VALID,0.0757812,
2009-08-02, 00:49:04,VALID,1002.67,VALID,0,VALID,91.8746,VALID,0,VALID,25.2786,VALID,340,VALID,0.0675781,
2009-08-02, 00:50:04,VALID,1002.66,VALID,0,VALID,91.8136,VALID,0,VALID,25.2786,VALID,340,VALID,0,
2009-08-02, 00:51:04,VALID,1002.61,VALID,0,VALID,91.8594,VALID,0.100563,VALID,25.2786,VALID,340,VALID,0,
2009-08-02, 00:52:04,VALID,1002.59,VALID,0,VALID,91.9051,VALID,0,VALID,25.3,VALID,340,VALID,0,
2009-08-02, 00:53:04,VALID,1002.57,VALID,0,VALID,91.8899,VALID,0,VALID,25.3,VALID,340,VALID,0,
2009-08-02, 00:54:04,VALID,1002.54,VALID,0,VALID,91.8517,VALID,0,VALID,25.2786,VALID,340,VALID,0,
2009-08-02, 00:55:04,VALID,1002.53,VALID,0,VALID,91.9585,VALID,0.100563,VALID,25.3176,VALID,340,VALID,0,
2009-08-02, 00:56:04,VALID,1002.54,VALID,0,VALID,91.8822,VALID,0,VALID,25.3176,VALID,340,VALID,0,
2009-08-02, 00:57:04,VALID,1002.51,VALID,0,VALID,91.8212,VALID,0,VALID,25.339,VALID,340,VALID,0,
2009-08-02, 00:58:04,VALID,1002.49,VALID,0,VALID,91.867,VALID,0,VALID,25.339,VALID,340,VALID,0.0460938,
2009-08-02, 00:59:04,VALID,1002.47,VALID,0,VALID,91.8212,VALID,0,VALID,25.339,VALID,340,VALID,0.493359,
2009-08-02, 01:00:04,VALID,1002.49,VALID,0,VALID,91.7907,VALID,0,VALID,25.3409,VALID,340,VALID,0.377344,
2009-08-02, 01:01:04,VALID,1002.47,VALID,0,VALID,91.8136,VALID,0,VALID,25.3,VALID,340,VALID,0.296484,
2009-08-02, 01:02:04,VALID,1002.44,VALID,0,VALID,91.8594,VALID,0,VALID,25.3,VALID,340,VALID,0.216797,
2009-08-02, 01:03:04,VALID,1002.48,VALID,0,VALID,91.9128,VALID,0,VALID,25.2825,VALID,340,VALID,0.189063,
2009-08-02, 01:04:04,VALID,1002.44,VALID,0,VALID,91.9662,VALID,0,VALID,25.3019,VALID,340,VALID,0.155078,
2009-08-02, 01:05:04,VALID,1002.45,VALID,0,VALID,92.073,VALID,0,VALID,25.2611,VALID,340,VALID,0.130469,
2009-08-02, 01:06:04,VALID,1002.47,VALID,0,VALID,92.1111,VALID,0,VALID,25.2611,VALID,340,VALID,0,
2009-08-02, 01:07:04,VALID,1002.48,VALID,0,VALID,92.1492,VALID,0,VALID,25.2825,VALID,340,VALID,0,
2009-08-02, 01:08:04,VALID,1002.48,VALID,0,VALID,92.1721,VALID,0,VALID,25.2611,VALID,340,VALID,0.003125,
2009-08-02, 01:09:04,VALID,1002.5,VALID,0,VALID,92.2179,VALID,0,VALID,25.263,VALID,340,VALID,0.0292969,
2009-08-02, 01:10:04,VALID,1002.48,VALID,0,VALID,92.2255,VALID,0,VALID,25.2611,VALID,340,VALID,0,
2009-08-02, 01:11:04,VALID,1002.48,VALID,0,VALID,92.2103,VALID,0,VALID,25.2221,VALID,340,VALID,0.0015625,
2009-08-02, 01:12:04,VALID,1002.45,VALID,0,VALID,92.2179,VALID,0,VALID,25.2221,VALID,340,VALID,0,
2009-08-02, 01:13:04,VALID,1002.45,VALID,0,VALID,92.2789,VALID,0,VALID,25.2221,VALID,340,VALID,0.0339844,
2009-08-02, 01:14:04,VALID,1002.43,VALID,0,VALID,92.3095,VALID,0,VALID,25.2416,VALID,340,VALID,0.110547,
2009-08-02, 01:15:04,VALID,1002.41,VALID,0,VALID,92.3171,VALID,0,VALID,25.2027,VALID,340,VALID,0.0667969,
2009-08-02, 01:16:04,VALID,1002.4,VALID,0,VALID,92.3781,VALID,0,VALID,25.2221,VALID,340,VALID,0.203906,
2009-08-02, 01:17:04,VALID,1002.4,VALID,0,VALID,92.34,VALID,0,VALID,25.2221,VALID,340,VALID,0.0105469,
2009-08-02, 01:18:04,VALID,1002.38,VALID,0,VALID,92.4163,VALID,0,VALID,25.2221,VALID,340,VALID,0.186328,
2009-08-02, 01:19:04,VALID,1002.33,VALID,0,VALID,92.4239,VALID,0,VALID,25.2027,VALID,340,VALID,0.0902344,
2009-08-02, 01:20:04,VALID,1002.33,VALID,0,VALID,92.5078,VALID,0,VALID,25.224,VALID,340,VALID,0,
2009-08-02, 01:21:04,VALID,1002.32,VALID,0,VALID,92.5002,VALID,0,VALID,25.2221,VALID,340,VALID,0,
2009-08-02, 01:22:04,VALID,1002.3,VALID,0,VALID,92.4849,VALID,0,VALID,25.2221,VALID,340,VALID,0,
2009-08-02, 01:23:04,VALID,1002.29,VALID,0,VALID,92.5231,VALID,0,VALID,25.2007,VALID,340,VALID,0,
2009-08-02, 01:24:04,VALID,1002.28,VALID,0,VALID,92.5917,VALID,0,VALID,25.263,VALID,340,VALID,0.195703,
2009-08-02, 01:25:04,VALID,1002.26,VALID,0,VALID,92.5688,VALID,0,VALID,25.2416,VALID,340,VALID,0.00742187,
2009-08-02, 01:26:04,VALID,1002.28,VALID,0,VALID,92.5688,VALID,0,VALID,25.2611,VALID,340,VALID,0.250391,
2009-08-02, 01:27:04,VALID,1002.28,VALID,0,VALID,92.5765,VALID,0,VALID,25.2806,VALID,340,VALID,0.0714844,
2009-08-02, 01:28:04,VALID,1002.28,VALID,0,VALID,92.5383,VALID,0,VALID,25.2786,VALID,340,VALID,0,
2009-08-02, 01:29:04,VALID,1002.27,VALID,0,VALID,92.5078,VALID,0,VALID,25.2611,VALID,340,VALID,0.180859,
2009-08-02, 01:30:04,VALID,1002.28,VALID,0,VALID,92.5231,VALID,0,VALID,25.3,VALID,340,VALID,0.346875,
2009-08-02, 01:31:04,VALID,1002.28,VALID,0,VALID,92.4391,VALID,0,VALID,25.3,VALID,340,VALID,0.330469,
2009-08-02, 01:32:04,VALID,1002.27,VALID,0,VALID,92.3857,VALID,0,VALID,25.3,VALID,340,VALID,0.433203,
2009-08-02, 01:33:04,VALID,1002.27,VALID,0,VALID,92.3323,VALID,0,VALID,25.3019,VALID,340,VALID,0.350391,
2009-08-02, 01:34:04,VALID,1002.24,VALID,0,VALID,92.3247,VALID,0,VALID,25.2806,VALID,340,VALID,0.276953,
2009-08-02, 01:35:04,VALID,1002.24,VALID,0,VALID,92.3171,VALID,0,VALID,25.3,VALID,340,VALID,0.264062,
2009-08-02, 01:36:04,VALID,1002.21,VALID,0,VALID,92.3629,VALID,0,VALID,25.3,VALID,340,VALID,0.0488281,
2009-08-02, 01:37:04,VALID,1002.19,VALID,0,VALID,92.3171,VALID,0,VALID,25.3,VALID,340,VALID,0.295312,
2009-08-02, 01:38:04,VALID,1002.2,VALID,0,VALID,92.3705,VALID,0,VALID,25.3,VALID,340,VALID,0,
2009-08-02, 01:39:04,VALID,1002.18,VALID,0,VALID,92.3705,VALID,0,VALID,25.3,VALID,340,VALID,0,
2009-08-02, 01:40:04,VALID,1002.15,VALID,0,VALID,92.2942,VALID,0,VALID,25.3195,VALID,340,VALID,0.125781,
2009-08-02, 01:41:04,VALID,1002.15,VALID,0,VALID,92.3018,VALID,0,VALID,25.3,VALID,340,VALID,0.382422,
2009-08-02, 01:42:04,VALID,1002.1,VALID,0,VALID,92.3018,VALID,0,VALID,25.2806,VALID,340,VALID,0.554297,
2009-08-02, 01:43:04,VALID,1002.07,VALID,0,VALID,92.3476,VALID,0,VALID,25.2806,VALID,340,VALID,0.501562,
2009-08-02, 01:44:04,VALID,1002.07,VALID,0,VALID,92.34,VALID,0,VALID,25.2611,VALID,340,VALID,0.356641,
2009-08-02, 01:45:04,VALID,1002.05,VALID,0,VALID,92.3171,VALID,0,VALID,25.2611,VALID,340,VALID,0.454688,
2009-08-02, 01:46:04,VALID,1002.05,VALID,0,VALID,92.3323,VALID,0,VALID,25.2611,VALID,340,VALID,0.607031,
2009-08-02, 01:47:04,VALID,1002.05,VALID,0,VALID,92.34,VALID,0,VALID,25.2416,VALID,340,VALID,0.411719,
2009-08-02, 01:48:04,VALID,1002.1,VALID,0,VALID,92.3857,VALID,0,VALID,25.2416,VALID,340,VALID,0.0398437,
2009-08-02, 01:49:04,VALID,1002.06,VALID,0,VALID,92.4239,VALID,0,VALID,25.2416,VALID,340,VALID,0,
2009-08-02, 01:50:04,VALID,1002.06,VALID,0,VALID,92.4773,VALID,0,VALID,25.2611,VALID,340,VALID,0,
2009-08-02, 01:51:04,VALID,1002.07,VALID,0,VALID,92.5154,VALID,0,VALID,25.2806,VALID,340,VALID,0,
2009-08-02, 01:52:04,VALID,1002.04,VALID,0,VALID,92.5612,VALID,0,VALID,25.2806,VALID,340,VALID,0.287891,
2009-08-02, 01:53:04,VALID,1002.04,VALID,0,VALID,92.5231,VALID,0,VALID,25.2806,VALID,340,VALID,0.0355469,
2009-08-02, 01:54:04,VALID,1002.02,VALID,0,VALID,92.4925,VALID,0,VALID,25.3,VALID,340,VALID,0.363672,
2009-08-02, 01:55:04,VALID,1002.03,VALID,0,VALID,92.4391,VALID,0,VALID,25.3,VALID,340,VALID,0.102734,
2009-08-02, 01:56:04,VALID,1002.04,VALID,0,VALID,92.4925,VALID,0,VALID,25.2806,VALID,340,VALID,0,
2009-08-02, 01:57:04,VALID,1002.03,VALID,0,VALID,92.4315,VALID,0,VALID,25.3,VALID,340,VALID,0.149219,
2009-08-02, 01:58:04,VALID,1002.03,VALID,0,VALID,92.401,VALID,0,VALID,25.3176,VALID,340,VALID,0.166016,
2009-08-02, 01:59:04,VALID,1002.02,VALID,0,VALID,92.3171,VALID,0,VALID,25.2981,VALID,340,VALID,0.356641,
2009-08-02, 02:00:04,VALID,1002.06,VALID,0,VALID,92.2942,VALID,0,VALID,25.3195,VALID,340,VALID,0.191797,
2009-08-02, 02:01:04,VALID,1002.04,VALID,0,VALID,92.2866,VALID,0,VALID,25.2786,VALID,340,VALID,0.136328,
2009-08-02, 02:02:04,VALID,1002.04,VALID,0,VALID,92.3247,VALID,0,VALID,25.2592,VALID,340,VALID,0.00429688,
2009-08-02, 02:03:04,VALID,1002.07,VALID,0,VALID,92.3171,VALID,0,VALID,25.2786,VALID,340,VALID,0.309375,
2009-08-02, 02:04:04,VALID,1002.06,VALID,0,VALID,92.2942,VALID,0,VALID,25.2611,VALID,340,VALID,0.581641,
2009-08-02, 02:05:04,VALID,1002.1,VALID,0,VALID,92.3857,VALID,0,VALID,25.2202,VALID,340,VALID,0.0898438,
2009-08-02, 02:06:04,VALID,1002.1,VALID,0,VALID,92.5307,VALID,0,VALID,25.2397,VALID,340,VALID,0.00664063,
2009-08-02, 02:07:04,VALID,1002.12,VALID,0,VALID,92.5612,VALID,0,VALID,25.2397,VALID,340,VALID,0.197656,
2009-08-02, 02:08:04,VALID,1002.1,VALID,0,VALID,92.5841,VALID,0,VALID,25.2202,VALID,340,VALID,0.353516,
2009-08-02, 02:09:04,VALID,1002.08,VALID,0,VALID,92.607,VALID,0,VALID,25.2611,VALID,340,VALID,0.235547,
2009-08-02, 02:10:04,VALID,1002.1,VALID,0,VALID,92.5841,VALID,0,VALID,25.2202,VALID,340,VALID,0.191797,
2009-08-02, 02:11:04,VALID,1002.09,VALID,0,VALID,92.5993,VALID,0.100563,VALID,25.2202,VALID,340,VALID,0.386328,
2009-08-02, 02:12:04,VALID,1002.1,VALID,0,VALID,92.6222,VALID,0,VALID,25.2007,VALID,340,VALID,0.366406,
2009-08-02, 02:13:04,VALID,1002.12,VALID,0,VALID,92.6528,VALID,0,VALID,25.2027,VALID,340,VALID,0.192969,
2009-08-02, 02:14:04,VALID,1002.11,VALID,0,VALID,92.6375,VALID,0,VALID,25.2027,VALID,341,VALID,0.324219,
2009-08-02, 02:15:04,VALID,1002.09,VALID,0,VALID,92.6528,VALID,0,VALID,25.1832,VALID,341,VALID,0.284375,
2009-08-02, 02:16:04,VALID,1002.11,VALID,0,VALID,92.7214,VALID,0,VALID,25.1442,VALID,341,VALID,0.357422,
2009-08-02, 02:17:04,VALID,1002.08,VALID,0,VALID,92.7443,VALID,0,VALID,25.1442,VALID,341,VALID,0.371094,
2009-08-02, 02:18:04,VALID,1002.09,VALID,0,VALID,92.7596,VALID,0,VALID,25.1248,VALID,341,VALID,0.509375,
2009-08-02, 02:19:04,VALID,1002.1,VALID,0,VALID,92.8053,VALID,0,VALID,25.0839,VALID,341,VALID,0.163281,
2009-08-02, 02:20:04,VALID,1002.11,VALID,0,VALID,92.8511,VALID,0,VALID,25.1053,VALID,341,VALID,0.439063,
2009-08-02, 02:21:04,VALID,1002.12,VALID,0,VALID,92.8664,VALID,0,VALID,25.0663,VALID,341,VALID,0.274219,
2009-08-02, 02:22:04,VALID,1002.14,VALID,0,VALID,92.9198,VALID,0,VALID,25.0469,VALID,341,VALID,0.414453,
2009-08-02, 02:23:04,VALID,1002.14,VALID,0,VALID,93.0113,VALID,0,VALID,25.0469,VALID,341,VALID,0.21875,
2009-08-02, 02:24:04,VALID,1002.19,VALID,0,VALID,93.0647,VALID,0,VALID,25.0469,VALID,341,VALID,0,
2009-08-02, 02:25:04,VALID,1002.2,VALID,0,VALID,93.1181,VALID,0,VALID,25.0469,VALID,341,VALID,0,
2009-08-02, 02:26:04,VALID,1002.18,VALID,0,VALID,93.202,VALID,0,VALID,25.0274,VALID,341,VALID,0,
2009-08-02, 02:27:04,VALID,1002.2,VALID,0,VALID,93.2554,VALID,0,VALID,25.0274,VALID,341,VALID,0,
2009-08-02, 02:28:04,VALID,1002.21,VALID,0,VALID,93.2859,VALID,0,VALID,25.0274,VALID,341,VALID,0.35,
2009-08-02, 02:29:04,VALID,1002.23,VALID,0,VALID,93.3317,VALID,0,VALID,25.0079,VALID,341,VALID,0.396875,
2009-08-02, 02:30:04,VALID,1002.21,VALID,0,VALID,93.3775,VALID,0,VALID,25.0079,VALID,341,VALID,0.409766,
2009-08-02, 02:31:04,VALID,1002.24,VALID,0,VALID,93.408,VALID,0,VALID,25.0079,VALID,341,VALID,0.458594,
2009-08-02, 02:32:04,VALID,1002.29,VALID,0,VALID,93.4614,VALID,0,VALID,25.0098,VALID,341,VALID,0.526172,
2009-08-02, 02:33:04,VALID,1002.31,VALID,0,VALID,93.5072,VALID,0,VALID,24.9885,VALID,341,VALID,0.470313,
2009-08-02, 02:34:04,VALID,1002.33,VALID,0,VALID,93.4996,VALID,0,VALID,24.969,VALID,341,VALID,0.464844,
2009-08-02, 02:35:04,VALID,1002.33,VALID,0,VALID,93.5453,VALID,0,VALID,24.9885,VALID,341,VALID,0.426562,
2009-08-02, 02:36:04,VALID,1002.35,VALID,0,VALID,93.5606,VALID,0,VALID,24.9671,VALID,341,VALID,0.416406,
2009-08-02, 02:37:04,VALID,1002.35,VALID,0,VALID,93.5911,VALID,0,VALID,25.0098,VALID,341,VALID,0.396875,
2009-08-02, 02:38:04,VALID,1002.36,VALID,0,VALID,93.6216,VALID,0,VALID,25.0293,VALID,341,VALID,0.383203,
2009-08-02, 02:39:04,VALID,1002.36,VALID,0,VALID,93.6445,VALID,0,VALID,25.0079,VALID,341,VALID,0.336719,
2009-08-02, 02:40:04,VALID,1002.36,VALID,0,VALID,93.6979,VALID,0,VALID,25.0274,VALID,340,VALID,0.421094,
2009-08-02, 02:41:04,VALID,1002.34,VALID,0,VALID,93.6369,VALID,0,VALID,25.0663,VALID,341,VALID,0.375391,
2009-08-02, 02:42:04,VALID,1002.37,VALID,0,VALID,93.6292,VALID,0,VALID,25.1053,VALID,341,VALID,0.533594,
2009-08-02, 02:43:04,VALID,1002.35,VALID,0,VALID,93.5377,VALID,0,VALID,25.1423,VALID,341,VALID,0.584375,
2009-08-02, 02:44:04,VALID,1002.35,VALID,0,VALID,93.3317,VALID,0.100563,VALID,25.1988,VALID,341,VALID,0.405469,
2009-08-02, 02:45:04,VALID,1002.38,VALID,0,VALID,93.141,VALID,0,VALID,25.2397,VALID,341,VALID,0.429297,
2009-08-02, 02:46:04,VALID,1002.39,VALID,0,VALID,92.8892,VALID,0.100563,VALID,25.2397,VALID,341,VALID,0.469141,
2009-08-02, 02:47:04,VALID,1002.39,VALID,0,VALID,92.6909,VALID,0.100563,VALID,25.2397,VALID,341,VALID,0.533594,
2009-08-02, 02:48:04,VALID,1002.39,VALID,0,VALID,92.5993,VALID,0,VALID,25.2397,VALID,341,VALID,0.282813,
2009-08-02, 02:49:04,VALID,1002.44,VALID,0,VALID,92.607,VALID,0,VALID,25.2397,VALID,341,VALID,0.301953,
2009-08-02, 02:50:04,VALID,1002.44,VALID,0,VALID,92.6375,VALID,0,VALID,25.2592,VALID,341,VALID,0.360938,
2009-08-02, 02:51:04,VALID,1002.43,VALID,0,VALID,92.6299,VALID,0,VALID,25.2786,VALID,341,VALID,0.523438,
2009-08-02, 02:52:04,VALID,1002.45,VALID,0,VALID,92.6146,VALID,0,VALID,25.2981,VALID,341,VALID,0.266406,
2009-08-02, 02:53:04,VALID,1002.41,VALID,0,VALID,92.5612,VALID,0,VALID,25.337,VALID,341,VALID,0.277734,
2009-08-02, 02:54:04,VALID,1002.4,VALID,0,VALID,92.4086,VALID,0.100563,VALID,25.3935,VALID,341,VALID,0.378125,
2009-08-02, 02:55:04,VALID,1002.41,VALID,0,VALID,92.3323,VALID,0,VALID,25.4344,VALID,341,VALID,0.225391,
2009-08-02, 02:56:04,VALID,1002.4,VALID,0,VALID,92.3476,VALID,0.100563,VALID,25.4734,VALID,341,VALID,0.046875,
2009-08-02, 02:57:04,VALID,1002.37,VALID,0,VALID,92.2637,VALID,0,VALID,25.4734,VALID,341,VALID,0.333984,
2009-08-02, 02:58:04,VALID,1002.37,VALID,0,VALID,92.195,VALID,0,VALID,25.5142,VALID,341,VALID,0.233203,
2009-08-02, 02:59:04,VALID,1002.39,VALID,0,VALID,92.0653,VALID,0,VALID,25.5142,VALID,341,VALID,0.122266,
2009-08-02, 03:00:04,VALID,1002.38,VALID,0,VALID,91.9738,VALID,0,VALID,25.5123,VALID,341,VALID,0.444531,
2009-08-02, 03:01:04,VALID,1002.38,VALID,0,VALID,91.8899,VALID,0.100563,VALID,25.5104,VALID,341,VALID,0.558203,
2009-08-02, 03:02:04,VALID,1002.39,VALID,0,VALID,91.7373,VALID,0,VALID,25.5513,VALID,341,VALID,0.539844,
2009-08-02, 03:03:04,VALID,1002.38,VALID,0,VALID,91.5008,VALID,0.100563,VALID,25.5707,VALID,341,VALID,0.63125,
2009-08-02, 03:04:04,VALID,1002.39,VALID,0,VALID,91.2033,VALID,0,VALID,25.6097,VALID,344,VALID,0.789063,
2009-08-02, 03:05:04,VALID,1002.4,VALID,0,VALID,90.982,VALID,0,VALID,25.6486,VALID,344,VALID,0.597656,
2009-08-02, 03:06:04,VALID,1002.41,VALID,0,VALID,90.7913,VALID,0.100563,VALID,25.6486,VALID,344,VALID,0,
2009-08-02, 03:07:04,VALID,1002.44,VALID,0,VALID,90.715,VALID,0,VALID,25.6895,VALID,344,VALID,0.00429688,
2009-08-02, 03:08:04,VALID,1002.41,VALID,0,VALID,90.6082,VALID,0,VALID,25.6681,VALID,344,VALID,0.260938,
2009-08-02, 03:09:04,VALID,1002.43,VALID,0,VALID,90.4862,VALID,0,VALID,25.6681,VALID,344,VALID,0.212109,
2009-08-02, 03:10:04,VALID,1002.44,VALID,0,VALID,90.3488,VALID,0,VALID,25.6876,VALID,344,VALID,0.0363281,
2009-08-02, 03:11:04,VALID,1002.45,VALID,0,VALID,90.2725,VALID,0.100563,VALID,25.6856,VALID,344,VALID,0,
2009-08-02, 03:12:04,VALID,1002.46,VALID,0,VALID,90.1429,VALID,0.100563,VALID,25.7285,VALID,344,VALID,0.544922,
2009-08-02, 03:13:04,VALID,1002.44,VALID,0,VALID,89.853,VALID,0,VALID,25.7265,VALID,341,VALID,0.600781,
2009-08-02, 03:14:04,VALID,1002.43,VALID,0,VALID,89.7614,VALID,0,VALID,25.746,VALID,342,VALID,0.5875,
2009-08-02, 03:15:04,VALID,1002.4,VALID,0,VALID,89.7156,VALID,0,VALID,25.7674,VALID,343,VALID,0.433203,
2009-08-02, 03:16:04,VALID,1002.42,VALID,0,VALID,89.5707,VALID,0,VALID,25.746,VALID,344,VALID,0.591406,
2009-08-02, 03:17:04,VALID,1002.44,VALID,0,VALID,89.4181,VALID,0,VALID,25.7655,VALID,347,VALID,0.3875,
2009-08-02, 03:18:04,VALID,1002.45,VALID,0,VALID,89.3189,VALID,0,VALID,25.7655,VALID,348,VALID,0.646094,
2009-08-02, 03:19:04,VALID,1002.41,VALID,0,VALID,88.9985,VALID,0,VALID,25.8044,VALID,346,VALID,0.626953,
2009-08-02, 03:20:04,VALID,1002.43,VALID,0,VALID,88.7773,VALID,0,VALID,25.8239,VALID,345,VALID,0.697656,
2009-08-02, 03:21:04,VALID,1002.44,VALID,0,VALID,88.5332,VALID,0.100563,VALID,25.8648,VALID,340,VALID,0.697656,
2009-08-02, 03:22:04,VALID,1002.42,VALID,0,VALID,88.3195,VALID,0,VALID,25.8629,VALID,340,VALID,0.58125,
2009-08-02, 03:23:04,VALID,1002.45,VALID,0,VALID,88.2738,VALID,0,VALID,25.9018,VALID,340,VALID,0.269141,
2009-08-02, 03:24:04,VALID,1002.42,VALID,0,VALID,88.167,VALID,0,VALID,25.9408,VALID,336,VALID,0.629687,
2009-08-02, 03:25:04,VALID,1002.42,VALID,0,VALID,87.9457,VALID,0,VALID,25.9193,VALID,341,VALID,0.690625,
2009-08-02, 03:26:04,VALID,1002.44,VALID,0,VALID,87.6635,VALID,0,VALID,25.9817,VALID,342,VALID,0.769922,
2009-08-02, 03:27:04,VALID,1002.44,VALID,0,VALID,87.4804,VALID,0.100563,VALID,26.0187,VALID,327,VALID,0.651953,
2009-08-02, 03:28:04,VALID,1002.44,VALID,0,VALID,87.3202,VALID,0,VALID,26.0791,VALID,346,VALID,0.525,
2009-08-02, 03:29:04,VALID,1002.42,VALID,0,VALID,87.1447,VALID,0,VALID,26.0771,VALID,2,VALID,0.253906,
2009-08-02, 03:30:04,VALID,1002.44,VALID,0,VALID,86.8853,VALID,0,VALID,26.0966,VALID,353,VALID,0.708984,
2009-08-02, 03:31:04,VALID,1002.45,VALID,0,VALID,86.7556,VALID,0,VALID,26.116,VALID,281,VALID,0.540234,
2009-08-02, 03:32:04,VALID,1002.46,VALID,0,VALID,86.5802,VALID,0,VALID,26.1355,VALID,338,VALID,0.621484,
2009-08-02, 03:33:04,VALID,1002.47,VALID,0,VALID,86.5954,VALID,0,VALID,26.157,VALID,328,VALID,0.585547,
2009-08-02, 03:34:04,VALID,1002.48,VALID,0,VALID,86.7633,VALID,0,VALID,26.1375,VALID,331,VALID,0.415625,
2009-08-02, 03:35:04,VALID,1002.49,VALID,0,VALID,86.7327,VALID,0,VALID,26.1784,VALID,337,VALID,0.521484,
2009-08-02, 03:36:04,VALID,1002.46,VALID,0,VALID,86.9082,VALID,0,VALID,26.1355,VALID,346,VALID,0.360547,
2009-08-02, 03:37:04,VALID,1002.49,VALID,0,VALID,86.8548,VALID,0,VALID,26.1355,VALID,338,VALID,0.511328,
2009-08-02, 03:38:04,VALID,1002.48,VALID,0,VALID,86.8929,VALID,0,VALID,26.1355,VALID,346,VALID,0.537891,
2009-08-02, 03:39:04,VALID,1002.47,VALID,0,VALID,86.9464,VALID,0.100563,VALID,26.1355,VALID,347,VALID,0.415625,
2009-08-02, 03:40:04,VALID,1002.48,VALID,0,VALID,86.8395,VALID,0,VALID,26.1355,VALID,346,VALID,0.305859,
2009-08-02, 03:41:04,VALID,1002.47,VALID,0,VALID,86.9006,VALID,0,VALID,26.1355,VALID,11,VALID,0.218359,
2009-08-02, 03:42:04,VALID,1002.43,VALID,0,VALID,86.7099,VALID,0,VALID,26.1745,VALID,346,VALID,0.923047,
2009-08-02, 03:43:04,VALID,1002.43,VALID,0,VALID,86.4962,VALID,0,VALID,26.1959,VALID,350,VALID,0.771484,
2009-08-02, 03:44:04,VALID,1002.44,VALID,0,VALID,86.2979,VALID,0,VALID,26.2349,VALID,334,VALID,0.539844,
2009-08-02, 03:45:04,VALID,1002.42,VALID,0,VALID,86.214,VALID,0,VALID,26.2544,VALID,329,VALID,0.478516,
2009-08-02, 03:46:04,VALID,1002.43,VALID,0,VALID,86.0995,VALID,0,VALID,26.2524,VALID,350,VALID,0.892187,
2009-08-02, 03:47:04,VALID,1002.41,VALID,0,VALID,86.0614,VALID,0,VALID,26.2913,VALID,344,VALID,0.373047,